Location: Passau
(48.5830°N, 13.4830°E)
Time: 06:30:07
(UTC+02:00)

Vanguard 1 - Pass Details

Date: 05 August 2021
Orbit: 652 x 3831 km, 34.3° (Epoch: 16 September)

Event Time Altitude Azimuth Distance (km) Brightness Sun altitude
Rises 11:56:56 0° 234° (SW) 2,992 12.6 54.8°
Reaches altitude 10° 11:59:38 10° 214° (SW) 2,197 12.2 55.0°
Maximum altitude 12:03:05 19° 169° (S) 1,896 12.5 55.3°
Drops below altitude 10° 12:07:27 10° 126° (SE) 2,880 13.1 55.6°
Sets 12:11:43 0° 110° (ESE) 4,344 13.7 56.0°
